COSMOS 2251 DEB

Satellite information

Favourite Embed

Satellite Type and Status

DEBRISIN ORBIT

Key statistics

Satellite COSMOS 2251 DEB at a glance.

Uptime

11868

Days in orbit

Revolutions

≈ 14.4

Per day

Orbit

LEO

Low Earth Orbit

Inclination

74.1

Latest

Satellite identification and parameters

Extended collection of information and parameters for COSMOS 2251 DEB.

Object identification

Identified? True

Debris? True

Object name: COSMOS 2251 DEB

International designator: 1993-036AXK

Object number (NORAD): 36048

Object ID (CCSDS): 36048

Country: COMMONWEALTH OF INDEPENDENT STATES (CIS)

Current information (Y/N): Y

RCS size: SMALL

Orbital parameters

Period: 100.15 minutes

Inclination: 74.0571 deg

SMA: 7143.763 km

Apoapsis: 784.569 km

Periapsis: 746.687 km

RAAN: 303.7212 deg

Eccentricy: 0.0026514

Argument of periapsis: 354.2337 deg

Mean anomaly: 156.0655 deg

Mean motion: 14.3784538 rev/day

Mean motion (dot): 0.0000145 rev/day2

B* drag term: 0.00048763 1/REarth

Two-line elements (TLE)

Creation date: Dec. 10, 2025, 3:06 p.m.

Reference frame: TEME

Reference center: EARTH

Epoch: Dec. 10, 2025, 7:51 a.m. UTC

TLE line 0: 0 COSMOS 2251 DEB

TLE line 1: 1 36048U 93036AXK 25344.32735714 .00001450 00000-0 48763-3 0 9993

TLE line 2: 2 36048 74.0571 303.7212 0026514 354.2337 156.0655 14.37845380854671

Live tracking on map

Real-time ground track for satellite COSMOS 2251 DEB.

In-orbit conjunctions

A list of the most updated potential collisions computed for object COSMOS 2251 DEB.

Target Orbit TCA Probability of collision Miss distance Type
SL-24 R/B SSO 2025-09-07 11:38:46 0.005866718 53.0 (m) ROCKET BODY
CZ-6A DEB LEO 2025-01-29 21:52:22 0.0005173318 336.0 (m) DEBRIS
FENGYUN 1C DEB SSO 2024-11-12 00:37:17 0.000144281 209.0 (m) DEBRIS

Associated space launch

Military communications satellite. Destroyed in a collision with Iridium 33.

COSMOS 2251 DEB was lifted into orbit during the mission ‘Kosmos-3M | Strela-2M 51’, on board a Kosmos-3M space rocket.

The launch took place on June 16, 1993, 4:17 a.m. from 132/1 (132L).

For more information about the launch, click the button.

Launch to space Kosmos-3M | Strela-2M 51
Kosmos-3M | Strela-2M 51

Agency: N/A

Status: Launch Successful

Launch date: June 16, 1993, 4:17 a.m. UTC

Rocket: Kosmos-3M

Launch pad: 132/1 (132L)

Location: Plesetsk Cosmodrome, Russian Federation

...

Latest news about this satellite

There are no fresh news available about this satellite. Check back as we update our databases every day.


Newsletter sign-up

Weekly statistics, charts and insights to help you stay on top of the space industry.